Location: Unspecified
(0.0000°N, 0.0000°E)
Time: 19:01:07
(UTC+00:00)

Vanguard 2 Rocket - Pass Details

Date: 20 January 2020
Orbit: 554 x 3327 km, 32.9° (Epoch: 20 February)

Event Time Altitude Azimuth Distance (km) Brightness Sun altitude
Rises 17:08:35 0° 273° (W) 7,194 12.8 14.6°
Reaches altitude 10° 17:14:36 10° 262° (W) 6,276 13.3 13.2°
Maximum altitude 17:30:35 29° 210° (SSW) 4,589 11.3 9.5°
Drops below altitude 10° 17:43:46 10° 156° (SSE) 5,119 10.7 6.4°
Sets 17:48:07 0° 144° (SE) 5,728 10.8 5.4°
